www.pogodaiklimat.ru

Погода и климат >> Архив погоды >> Россия >> Чукотка >> Омолон


АРХИВ ПОГОДЫ в Омолоне

Время (UTC), дата Ветер
(напр.,м/с)
 
Видим.   Явления Облачность Т
(С)
Тd
(С)
f
(%)
Тe
(С)
Тes
(С)
Комфортность P
(гПа)
Po
(гПа)
Тmin
(С)
Tmax
(С)
R
(мм)
R24
(мм)
S
(см)
21 11.02 штиль 0
{2}
6000 м дымка ясно -47.1 -52.5 54 -47 -47 опасность
обморожения
1017.5 978.3 -47.2 23
00 12.02 штиль 0
{1}
6000 м дымка ясно -43.0 -47.8 59 -43 -42 опасность
обморожения
1017.4 978.9 -47.4
03 12.02 СВ 1
{2}
9000 м дымка ясно -38.7 -44.2 56 -44 -43 опасность
обморожения
1016.7 978.9
06 12.02 штиль 0
{1}
9000 м дымка ясно -40.9 -45.7 60 -41 -41 опасность
обморожения
1017.9 979.7
09 12.02 штиль 0
{1}
6000 м дымка ясно -42.4 -46.9 61 -42 -42 опасность
обморожения
1019.4 981.0 -38.1
12 12.02 штиль 0 5000 м дымка ясно -46.5 -51.7 55 -47 -47 опасность
обморожения
1021.5 982.2
15 12.02 штиль 0
{1}
5000 м дымка ясно -47.9 -53.2 54 -48 -48 опасность
обморожения
1022.3 982.8
18 12.02 штиль 0
{1}
4900 м дымка ясно -48.0 -53.5 53 -48 -48 опасность
обморожения
1023.1 983.5
21 12.02 штиль 0
{2}
4200 м дымка ясно -48.6 -54.2 52 -49 -49 опасность
обморожения
1024.8 985.0 -48.6 23
00 13.02 штиль 0 5000 м дымка ясно -43.2 -48.1 58 -43 -42 опасность
обморожения
1025.1 986.4 -49.1
03 13.02 штиль 0
{2}
50 км 3/0
[Ci fib]
-39.7 -46.6 48 -40 -39 опасность
обморожения
1025.4 987.4
06 13.02 штиль 0
{1}
50 км ясно -41.9 -47.3 55 -42 -42 опасность
обморожения
1027.7 989.0
09 13.02 штиль 0
{2}
7000 м дымка ясно -45.7 -50.8 56 -46 -46 опасность
обморожения
1029.9 990.4 -39.6
12 13.02 штиль 0
{1}
7000 м дымка ясно -48.1 -53.6 53 -48 -48 опасность
обморожения
1030.9 991.1
15 13.02 штиль 0
{1}
6000 м дымка ясно -48.0 -53.5 53 -48 -48 опасность
обморожения
1030.4 990.6
18 13.02 штиль 0
{1}
5000 м дымка ясно -48.0 -53.3 54 -48 -48 опасность
обморожения
1028.9 989.2
21 13.02 штиль 0
{2}
5000 м дымка ясно -48.2 -53.6 53 -48 -48 опасность
обморожения
1027.6 987.9 -48.5 23
00 14.02 Ю 2
{3}
50 км ясно -41.3 -46.3 58 -51 -50 опасность
обморожения
1024.2 985.8
03 14.02 В 1
{3}
50 км 1/0
[Ci fib]
-38.6 -44.6 53 -44 -43 опасность
обморожения
1020.9 983.0
06 14.02 штиль 0
{2}
50 км 8/0
[Ci fib]
-39.3 -44.6 57 -39 -39 опасность
обморожения
1018.5 980.6
09 14.02 штиль 0
{2}
9000 м дымка 5/0
[Ci fib]
-43.2 -48.1 58 -43 -43 опасность
обморожения
1017.0 978.5 -37.0
12 14.02 штиль 0
{1}
7000 м дымка 4/0
[Ci fib]
-43.7 -48.8 57 -44 -44 опасность
обморожения
1015.0 976.5
15 14.02 штиль 0
{1}
5000 м дымка 5/0
[Ci fib]
-44.4 -49.5 57 -44 -44 опасность
обморожения
1012.6 974.2
18 14.02 штиль 0
{1}
9000 м дымка 10/0
[Ci fib]
-39.9 -44.5 61 -40 -40 опасность
обморожения
1009.6 971.8
21 14.02 С 1
{1}
50 км 10/4 1000 м
[Sc Ac und]
-38.2 -42.6 63 -43 -43 опасность
обморожения
1007.5 970.2 -44.6 23
00 15.02 штиль 0
{2}
50 км 9/3 1000 м
[Sc Ac trans]
-36.0 -41.0 60 -36 -36 опасность
обморожения
1005.9 968.9
03 15.02 В 1
{2}
15 км слаб. снег 10/3 1000 м
[Sc Ac trans Cs]
-34.4 -39.8 58 -39 -39 опасность
обморожения
1004.4 967.8
06 15.02 штиль 0
{2}
50 км {снег} 9/0
[Ac trans Ci fib]
-34.2 -39.3 60 -34 -34 опасность
обморожения
1004.0 967.4
09 15.02 штиль 0
{2}
50 км 5/0
[Ac trans Ci fib]
-37.4 -41.6 65 -37 -37 опасность
обморожения
1004.2 967.2 -33.8 0.0
12 15.02 штиль 0
{2}
50 км 6/0
[Ci fib]
-39.7 -44.2 62 -40 -40 опасность
обморожения
1004.5 967.0
15 15.02 штиль 0
{2}
50 км 9/5 1000 м
[Sc Ac trans Ci fib]
-35.4 -39.5 66 -35 -35 опасность
обморожения
1002.2 965.5
18 15.02 С 1
{2}
50 км 10/8 1000 м
[Sc Ac trans]
-33.4 -37.8 64 -38 -38 опасность
обморожения
1001.4 965.1
21 15.02 СЗ 1
{2}
50 км 10/8 1000 м
[Sc Ac und]
-32.5 -36.9 65 -37 -37 опасность
обморожения
1001.4 965.1 -39.9 23
00 16.02 СЗ 2
{4}
16 км слаб. снег 10/5 1000 м
[Sc Ac trans Cs]
-31.6 -36.8 60 -39 -39 опасность
обморожения
1000.5 964.4
03 16.02 СЗ 2
{4}
15 км слаб. снег 10/6 600 м
[Sc Ac trans Cs]
-30.3 -35.9 58 -38 -38 опасность
обморожения
998.8 963.0
06 16.02 СЗ 1
{5}
50 км {снег} 9/0
[Ac trans Ci fib]
-31.0 -35.9 62 -35 -35 опасность
обморожения
997.9 962.0
09 16.02 СЗ 2
{4}
15 км слаб. снег 10/0
[Ac trans Cs]
-30.9 -35.4 64 -39 -39 опасность
обморожения
997.4 961.5 -30.2 0.0
12 16.02 СЗ 2
{5}
16 км слаб. снег 10/4 1000 м
[Sc Ac trans Cs]
-30.5 -34.6 67 -38 -38 опасность
обморожения
997.0 961.1
15 16.02 СЗ 1
{5}
15 км слаб. снег 10/0
[Ac trans Cs]
-30.6 -34.9 66 -35 -35 опасность
обморожения
996.9 961.0
18 16.02 СЗ 3
{6}
8000 м слаб. снег 10/6 600 м
[Sc As op]
-29.7 -33.9 67 -39 -39 опасность
обморожения
997.1 961.4
21 16.02 СЗ 3
{7}
7000 м слаб. снег 10/8 1000 м
[Sc As op]
-30.0 -34.1 67 -40 -40 опасность
обморожения
998.3 962.5 -30.9 0.9 24
00 17.02 СЗ 3
{8}
7000 м слаб. снег 10/6 1000 м
[Sc As op]
-29.3 -33.5 67 -39 -39 опасность
обморожения
999.5 963.8
03 17.02 СЗ 1
{6}
12 км слаб. снег 10/4 1000 м
[Sc As op]
-27.6 -32.4 63 -31 -31 опасность
обморожения
1000.2 964.7
06 17.02 З 2
{6}
16 км слаб. снег 10/4
[Sc As op]
-27.8 -31.6 70 -35 -35 опасность
обморожения
1002.0 966.3
09 17.02 СЗ 2
{5}
6000 м слаб. снег 10/3 1000 м
[Sc As op]
-28.0 -31.8 70 -35 -35 опасность
обморожения
1003.1 967.4 -27.6 2
12 17.02 СЗ 2
{6}
7000 м слаб. снег 10/6 1000 м
[Sc As op]
-28.4 -32.0 71 -36 -36 опасность
обморожения
1004.9 969.1
15 17.02 СЗ 1
{4}
8000 м слаб. снег 10/5 1000 м
[Sc As op]
-28.9 -32.4 72 -33 -33 опасность
обморожения
1007.0 970.1
18 17.02 штиль 0
{2}
9000 м слаб. снег 10/3 1000 м
[Sc As op]
-29.5 -32.8 73 -30 -30 1006.6 970.7
21 17.02 штиль 0
{1}
19 км снежные кристаллы 6/3 1000 м
[Sc As op]
-31.8 -35.3 71 -32 -32 опасность
обморожения
1008.3 971.8 -31.8 0.9 25
00 18.02 СЗ 1
{2}
50 км {снег} 10/0
[Ac trans Cs]
-29.0 -33.0 68 -33 -32 опасность
обморожения
1008.4 972.4 -32.3
03 18.02 СЗ 2
{4}
22 км снежные кристаллы 10/0
[Ac trans Cs]
-27.8 -32.2 66 -35 -34 опасность
обморожения
1008.4 972.5
06 18.02 штиль 0
{4}
50 км {снег} 10/3 1000 м
[Sc Ci fib]
-29.8 -33.2 72 -30 -30 1009.7 973.5
09 18.02 штиль 0
{2}
23 км снежные кристаллы 10/4 1000 м
[Sc Ac trans Cs]
-28.4 -31.9 72 -28 -28 1010.7 974.7 -27.5 0.0
12 18.02 Ю 1
{2}
50 км {снег} 8/0
[Ac trans Ci fib]
-31.1 -34.5 72 -35 -35 опасность
обморожения
1012.3 975.9
15 18.02 штиль 0
{2}
50 км 10/3 1000 м
[Sc Ac trans Ci fib]
-32.0 -35.5 71 -32 -32 опасность
обморожения
1013.5 976.9
18 18.02 штиль 0
{1}
50 км 10/5 1000 м
[Sc Ac trans Ci fib]
-30.2 -33.6 72 -30 -30 1014.3 977.9

 

Местоположение метеостанции Омолон (Чукотка, Россия): широта 65.23 долгота 160.50 высота над уровнем моря 260 м.

В архиве по умолчанию представлена погода в Омолоне за последнюю неделю. Архивные данные за месяц целиком и за предыдущие месяцы, начиная с января 2011 года, Вы можете получить, выбрав интересующий диапазон дат из раскрывающегося списка и нажав кнопку "Ввод!".


*Определитесь, кто Вы:
робот инопланетянин человек

Внимание! Время в таблицах - всемирное. Для получения местного времени необходимо прибавить поправку, которая равна 12 ч.

Смотрите также архив погоды в соседних городах и на ближайших метеорологических станциях:

Погода в Кегали (Магаданская область, Россия) (112 км)
Погода в Верхне-Пенжино (Камчатский край, Россия) (209 км)
Погода в Баимке (Чукотка, Россия) (222 км)
Погода в Лабазной (Магаданская область, Россия) (235 км)
Погода в Коркодоне (Магаданская область, Россия) (315 км)
Погода в Константиновской (Чукотка, Россия) (326 км)
Погода в Балыгычане (Магаданская область, Россия) (339 км)
Погода в Анюйске (Чукотка, Россия) (350 км)
Погода в Островном (Чукотка, Россия) (358 км)
Погода в Эвенске (Магаданская область, Россия) (374 км)

Пояснения к столбцам:

Ветер - указаны скорость ветра в м/с - средняя за 10 мин, порывы в срок и между сроками (в фигурных скобках) и направление, откуда дует ветер: С - северный, СВ - северо-восточный, В - восточный, ЮВ - юго-восточный, Ю - южный, ЮЗ - юго-западный, З - западный, СЗ - северо-западный.
Видимость - горизонтальная дальность видимости в метрах или километрах. При видимости от 1 до 10 км при отсутствии осадков обычно наблюдается дымка, при ухудшении видимости до 1 км и менее - туман. В сухую погоду видимость может ухудшаться дымом, пылью или мглою.
Явления - указаны атмосферные явления, наблюдавшиеся в срок или в последний час перед сроком; фигурными скобками обозначены явления, наблюдавшиеся между сроками (за 1-3 часа до срока); квадратными скобками обозначены град или гололедные отложения с указанием их диаметра в мм.
Облачность - указаны через наклонную черту общая и нижняя облачность в баллах и высота нижней границы облаков в метрах; квадратными скобками обозначены формы облаков: Ci - перистые, Cs - перисто-слоистые, Cc - перисто-кучевые, Ac - высококучевые, As - высокослоистые, Sc - слоисто-кучевые, Ns - слоисто-дождевые, Cu - кучевые, Cb - кучево-дождевые. Подробнее классификацию облаков см. в Атласе облаков (PDF).
T - Температура воздуха - температура, измеренная на высоте 2 м над землей.
Td - Температура точки росы - температура, при понижении до которой содержащийся в воздухе водяной пар достигнет насыщения.
f - Относительная влажность воздуха - влажноcть воздуха, измеренная на высоте 2 м над землей.
Te - Эффективная температура - температура, которую ощущает одетый по сезону человек в тени. Характеристика душности погоды. При расчете учитывается влияние влажности воздуха и скорости ветра на теплоощущения человека.
Tes - Эффективная температура на солнце - температура, которую ощущает человек, с поправкой на солнечный нагрев. Характеристика знойности погоды. Зависит от высоты солнца над горизонтом, облачности и скорости ветра. Ночью, в пасмурную погоду, а также при ветре 12 м/с и более поправка равна нулю.
P - Атмосферное давление - приведенное к уровню моря атмосферное давление.
Po - Атмосферное давление - измеренное на уровне метеостанции атмосферное давление.
Tmin - Минимальная температура - минимум температуры воздуха на высоте 2 м над землей.
Tmax - Максимальная температура - максимум температуры воздуха на высоте 2 м над землей.
R - Количество осадков - Количество выпавших осадков за период времени, мм. При наведении курсора мыши на число - период времени, за который выпало указанное количество осадков.
R24 - Количество осадков - Количество выпавших осадков за 24 часа, мм.
S - Снежный покров - Высота снежного покрова, см. При наведении курсора мыши на число - состояние снежного покрова и степень покрытия местности в баллах.